| time (UTC) | temp C | wind direction | speed KPH | gust KPH | rain 1hr cm | rain 24hr cm | rain mn cm | humidity % | barometer mb |
| 20260506073506 | 22 | 92 | 3.2 | 12.9 | 0.00 | 0.00 | 0.00 | 89 | 1010.1 |
| 20260506073008 | 22 | 252 | 3.2 | 9.7 | 0.00 | 0.00 | 0.00 | 89 | 1010.2 |
| 20260506072507 | 22 | 234 | 3.2 | 8.0 | 0.00 | 0.00 | 0.00 | 89 | 1010.2 |
| 20260506072007 | 22 | 202 | 3.2 | 9.7 | 0.00 | 0.00 | 0.00 | 89 | 1010.1 |
| 20260506071506 | 22 | 243 | 1.6 | 8.0 | 0.00 | 0.00 | 0.00 | 89 | 1010.1 |
| 20260506071006 | 22 | 232 | 3.2 | 8.0 | 0.00 | 0.00 | 0.00 | 89 | 1010.1 |
| 20260506070506 | 22 | 163 | 3.2 | 11.3 | 0.00 | 0.00 | 0.00 | 89 | 1010.2 |
| 20260506062506 | 22 | 169 | 1.6 | 9.7 | 0.00 | 0.00 | 0.00 | 89 | 1010.0 |
| 20260506061007 | 22 | 160 | 3.2 | 11.3 | 0.00 | 0.00 | 0.00 | 89 | 1009.8 |
| 20260506060505 | 22 | 228 | 3.2 | 12.9 | 0.00 | 0.00 | 0.00 | 88 | 1009.9 |
| 20260506051009 | 23 | 226 | 3.2 | 12.9 | 0.00 | 0.00 | 0.00 | 88 | 1009.9 |
| 20260506045008 | 23 | 209 | 3.2 | 16.1 | 0.00 | 0.00 | 0.00 | 88 | 1009.9 |
| 20260506043507 | 23 | 234 | 1.6 | 9.7 | 0.00 | 0.00 | 0.00 | 88 | 1009.8 |
| 20260506042507 | 23 | 207 | 3.2 | 16.1 | 0.00 | 0.00 | 0.00 | 87 | 1009.9 |
| 20260506042008 | 23 | 259 | 3.2 | 16.1 | 0.00 | 0.00 | 0.00 | 87 | 1009.7 |
| 20260506040014 | 23 | 189 | 3.2 | 16.1 | 0.00 | 0.00 | 0.00 | 88 | 1010.0 |
| 20260506035506 | 23 | 187 | 1.6 | 8.0 | 0.00 | 0.00 | 0.00 | 88 | 1010.0 |
| 20260506035009 | 23 | 172 | 1.6 | 6.4 | 0.00 | 0.00 | 0.00 | 88 | 1010.0 |
| 20260506034508 | 23 | 191 | 3.2 | 11.3 | 0.00 | 0.00 | 0.00 | 87 | 1010.1 |
| 20260506033508 | 23 | 236 | 1.6 | 12.9 | 0.00 | 0.00 | 0.00 | 87 | 1009.9 |
| 20260506033009 | 23 | 153 | 3.2 | 12.9 | 0.00 | 0.00 | 0.00 | 87 | 1009.6 |
| 20260506032506 | 23 | 189 | 3.2 | 14.5 | 0.00 | 0.00 | 0.00 | 87 | 1009.6 |
| 20260506032009 | 23 | 183 | 1.6 | 14.5 | 0.00 | 0.00 | 0.00 | 87 | 1009.6 |
| 20260506031507 | 23 | 303 | 1.6 | 14.5 | 0.00 | 0.00 | 0.00 | 87 | 1009.5 |
| 20260506031009 | 23 | 48 | 1.6 | 9.7 | 0.00 | 0.00 | 0.00 | 87 | 1009.3 |
| 20260506030507 | 23 | 192 | 3.2 | 9.7 | 0.00 | 0.00 | 0.00 | 87 | 1009.4 |
| 20260506030009 | 23 | 231 | 3.2 | 9.7 | 0.00 | 0.00 | 0.00 | 87 | 1009.3 |
| 20260506025506 | 23 | 260 | 3.2 | 9.7 | 0.00 | 0.00 | 0.00 | 87 | 1009.3 |
| 20260506025009 | 23 | 266 | 3.2 | 14.5 | 0.00 | 0.00 | 0.00 | 86 | 1009.3 |
| 20260506024008 | 23 | 231 | 3.2 | 8.0 | 0.00 | 0.00 | 0.00 | 86 | 1009.1 |
| 20260506023506 | 23 | 246 | 3.2 | 9.7 | 0.00 | 0.00 | 0.00 | 86 | 1008.9 |
| 20260506023009 | 23 | 119 | 3.2 | 9.7 | 0.00 | 0.00 | 0.00 | 86 | 1008.9 |
| 20260506022507 | 23 | 209 | 3.2 | 8.0 | 0.00 | 0.00 | 0.00 | 86 | 1008.8 |
| 20260506020507 | 23 | 63 | 4.8 | 17.7 | 0.00 | 0.00 | 0.00 | 85 | 1008.6 |
| 20260506020011 | 23 | 184 | 3.2 | 17.7 | 0.00 | 0.00 | 0.00 | 85 | 1008.6 |
| 20260506015507 | 23 | 240 | 1.6 | 9.7 | 0.00 | 0.00 | 0.00 | 85 | 1008.5 |
| 20260506015008 | 23 | 211 | 3.2 | 8.0 | 0.00 | 0.00 | 0.00 | 85 | 1008.4 |
| 20260506014508 | 23 | 240 | 3.2 | 11.3 | 0.00 | 0.00 | 0.00 | 85 | 1008.3 |
| 20260506013508 | 23 | 130 | 1.6 | 11.3 | 0.00 | 0.00 | 0.00 | 85 | 1008.4 |
| 20260506013010 | 23 | 133 | 3.2 | 12.9 | 0.00 | 0.00 | 0.00 | 84 | 1008.3 |
| 20260506012008 | 23 | 222 | 1.6 | 6.4 | 0.00 | 0.00 | 0.00 | 84 | 1008.3 |
| 20260506011508 | 23 | 212 | 1.6 | 6.4 | 0.00 | 0.00 | 0.00 | 84 | 1008.2 |
| 20260506011008 | 24 | 169 | 1.6 | 6.4 | 0.00 | 0.00 | 0.00 | 83 | 1008.0 |
| 20260506010007 | 24 | 295 | 1.6 | 12.9 | 0.00 | 0.00 | 0.00 | 83 | 1008.0 |
| 20260506005507 | 24 | 219 | 1.6 | 6.4 | 0.00 | 0.00 | 0.00 | 83 | 1008.0 |
| 20260506005007 | 24 | 180 | 1.6 | 9.7 | 0.00 | 0.00 | 0.00 | 82 | 1008.2 |
| 20260506004508 | 24 | 221 | 3.2 | 9.7 | 0.00 | 0.00 | 0.00 | 82 | 1008.0 |
| 20260506004008 | 24 | 125 | 3.2 | 11.3 | 0.00 | 0.00 | 0.00 | 82 | 1008.1 |
| 20260506003009 | 25 | 235 | 1.6 | 6.4 | 0.00 | 0.00 | 0.00 | 82 | 1008.1 |
| 20260506002007 | 25 | 205 | 3.2 | 11.3 | 0.00 | 0.00 | 0.00 | 82 | 1008.2 |
| 20260506001507 | 25 | 179 | 3.2 | 11.3 | 0.00 | 0.00 | 0.00 | 81 | 1008.3 |
| 20260506001008 | 25 | 196 | 3.2 | 11.3 | 0.00 | 0.00 | 0.00 | 81 | 1008.4 |
| 20260506000506 | 25 | 242 | 3.2 | 12.9 | 0.00 | 0.00 | 0.00 | 81 | 1008.4 |
| 20260506000009 | 25 | 255 | 1.6 | 11.3 | 0.00 | 0.00 | 0.00 | 81 | 1008.2 |
| 20260505235507 | 25 | 227 | 3.2 | 11.3 | 0.00 | 0.00 | 0.00 | 81 | 1008.3 |
| 20260505234506 | 25 | 239 | 3.2 | 12.9 | 0.00 | 0.00 | 0.00 | 80 | 1008.2 |
| 20260505234007 | 25 | 248 | 3.2 | 12.9 | 0.00 | 0.00 | 0.00 | 80 | 1008.2 |
| 20260505233507 | 25 | 246 | 3.2 | 8.0 | 0.00 | 0.00 | 0.00 | 80 | 1008.2 |
| 20260505233009 | 25 | 226 | 3.2 | 12.9 | 0.00 | 0.00 | 0.00 | 80 | 1008.2 |
| 20260505232007 | 25 | 226 | 3.2 | 11.3 | 0.00 | 0.00 | 0.00 | 80 | 1008.2 |
| 20260505231506 | 25 | 279 | 4.8 | 12.9 | 0.00 | 0.00 | 0.00 | 80 | 1008.1 |
| 20260505230506 | 25 | 27 | 3.2 | 12.9 | 0.00 | 0.00 | 0.00 | 79 | 1008.0 |
| 20260505225506 | 25 | 215 | 3.2 | 9.7 | 0.00 | 0.00 | 0.00 | 79 | 1008.2 |
| 20260505225008 | 25 | 181 | 3.2 | 8.0 | 0.00 | 0.00 | 0.00 | 79 | 1008.2 |
| 20260505224506 | 25 | 234 | 3.2 | 14.5 | 0.00 | 0.00 | 0.00 | 79 | 1008.2 |
| 20260505224008 | 25 | 180 | 3.2 | 14.5 | 0.00 | 0.00 | 0.00 | 79 | 1008.2 |
| 20260505223505 | 25 | 229 | 4.8 | 12.9 | 0.00 | 0.00 | 0.00 | 79 | 1008.2 |
| 20260505223008 | 25 | 247 | 4.8 | 11.3 | 0.00 | 0.00 | 0.00 | 79 | 1008.1 |
| 20260505222506 | 26 | 188 | 3.2 | 14.5 | 0.00 | 0.00 | 0.00 | 79 | 1008.1 |
| 20260505222008 | 26 | 240 | 3.2 | 14.5 | 0.00 | 0.00 | 0.00 | 79 | 1008.1 |
| 20260505221007 | 26 | 154 | 3.2 | 16.1 | 0.00 | 0.00 | 0.00 | 79 | 1008.1 |
| 20260505220505 | 26 | 158 | 4.8 | 16.1 | 0.00 | 0.00 | 0.00 | 78 | 1008.1 |
| 20260505220008 | 26 | 198 | 4.8 | 24.1 | 0.00 | 0.00 | 0.00 | 79 | 1008.1 |
| 20260505215508 | 26 | 197 | 4.8 | 24.1 | 0.00 | 0.00 | 0.00 | 79 | 1008.1 |
| 20260505215007 | 26 | 45 | 4.8 | 22.5 | 0.00 | 0.00 | 0.00 | 79 | 1008.2 |
| 20260505214506 | 25 | 171 | 6.4 | 14.5 | 0.00 | 0.00 | 0.00 | 79 | 1008.1 |
| 20260505214007 | 25 | 242 | 4.8 | 16.1 | 0.00 | 0.00 | 0.00 | 79 | 1008.2 |
| 20260505213506 | 25 | 194 | 4.8 | 12.9 | 0.00 | 0.00 | 0.00 | 79 | 1008.2 |
| 20260505213009 | 25 | 160 | 6.4 | 17.7 | 0.00 | 0.00 | 0.00 | 80 | 1008.2 |
| 20260505212507 | 25 | 102 | 6.4 | 16.1 | 0.00 | 0.00 | 0.00 | 80 | 1008.3 |
| 20260505212006 | 25 | 153 | 4.8 | 12.9 | 0.00 | 0.00 | 0.00 | 80 | 1008.5 |
| 20260505211506 | 25 | 273 | 4.8 | 12.9 | 0.00 | 0.00 | 0.00 | 81 | 1008.6 |
| 20260505211007 | 25 | 239 | 3.2 | 12.9 | 0.00 | 0.00 | 0.00 | 81 | 1008.7 |
| 20260505210010 | 25 | 211 | 3.2 | 12.9 | 0.00 | 0.00 | 0.00 | 82 | 1008.9 |
| 20260505205506 | 25 | 169 | 3.2 | 12.9 | 0.00 | 0.00 | 0.00 | 82 | 1008.9 |
| 20260505205009 | 24 | 245 | 3.2 | 6.4 | 0.00 | 0.00 | 0.00 | 82 | 1008.9 |
| 20260505204506 | 24 | 211 | 3.2 | 11.3 | 0.00 | 0.00 | 0.00 | 82 | 1009.0 |
| 20260505204009 | 24 | 219 | 3.2 | 12.9 | 0.00 | 0.00 | 0.00 | 82 | 1009.0 |
| 20260505203507 | 24 | 274 | 3.2 | 14.5 | 0.00 | 0.00 | 0.00 | 82 | 1009.2 |
| 20260505203008 | 24 | 220 | 1.6 | 14.5 | 0.00 | 0.00 | 0.00 | 82 | 1009.2 |
| 20260505202506 | 24 | 184 | 1.6 | 9.7 | 0.00 | 0.00 | 0.00 | 81 | 1009.2 |
| 20260505202009 | 24 | 224 | 3.2 | 8.0 | 0.00 | 0.00 | 0.00 | 81 | 1009.3 |
| 20260505201507 | 24 | 253 | 3.2 | 12.9 | 0.00 | 0.00 | 0.00 | 81 | 1009.3 |
| 20260505201008 | 24 | 186 | 4.8 | 17.7 | 0.00 | 0.00 | 0.00 | 81 | 1009.5 |
| 20260505200508 | 24 | 188 | 4.8 | 17.7 | 0.00 | 0.00 | 0.00 | 81 | 1009.2 |
| 20260505195506 | 24 | 177 | 3.2 | 9.7 | 0.00 | 0.00 | 0.00 | 80 | 1009.5 |
| 20260505195007 | 24 | 172 | 3.2 | 9.7 | 0.00 | 0.00 | 0.00 | 80 | 1009.5 |
| 20260505194507 | 25 | 242 | 4.8 | 11.3 | 0.00 | 0.00 | 0.00 | 80 | 1009.5 |
| 20260505194008 | 25 | 200 | 4.8 | 17.7 | 0.00 | 0.00 | 0.00 | 79 | 1009.7 |
| 20260505193506 | 25 | 235 | 4.8 | 17.7 | 0.00 | 0.00 | 0.00 | 79 | 1009.5 |
| 20260505193009 | 25 | 264 | 3.2 | 8.0 | 0.00 | 0.00 | 0.00 | 79 | 1009.5 |
| 20260505192505 | 25 | 159 | 3.2 | 11.3 | 0.00 | 0.00 | 0.00 | 79 | 1009.4 |
| 20260505192007 | 25 | 235 | 4.8 | 16.1 | 0.00 | 0.00 | 0.00 | 79 | 1009.5 |
| 20260505191508 | 25 | 70 | 3.2 | 16.1 | 0.00 | 0.00 | 0.00 | 78 | 1009.5 |
| 20260505191008 | 25 | 317 | 3.2 | 16.1 | 0.00 | 0.00 | 0.00 | 79 | 1009.5 |
| 20260505190506 | 25 | 124 | 4.8 | 16.1 | 0.00 | 0.00 | 0.00 | 79 | 1009.5 |
| 20260505190011 | 25 | 192 | 4.8 | 12.9 | 0.00 | 0.00 | 0.00 | 79 | 1009.5 |
| 20260505185008 | 25 | 230 | 4.8 | 11.3 | 0.00 | 0.00 | 0.00 | 79 | 1009.8 |
| 20260505184509 | 25 | 206 | 4.8 | 12.9 | 0.00 | 0.00 | 0.00 | 79 | 1009.8 |
| 20260505184007 | 24 | 146 | 3.2 | 9.7 | 0.00 | 0.00 | 0.00 | 79 | 1009.7 |
| 20260505183507 | 24 | 229 | 3.2 | 9.7 | 0.00 | 0.00 | 0.00 | 79 | 1009.8 |
| 20260505183010 | 24 | 262 | 3.2 | 14.5 | 0.00 | 0.00 | 0.00 | 79 | 1009.8 |
| 20260505182508 | 24 | 192 | 3.2 | 8.0 | 0.00 | 0.00 | 0.00 | 79 | 1009.8 |
| 20260505181507 | 24 | 171 | 3.2 | 12.9 | 0.00 | 0.00 | 0.00 | 79 | 1009.8 |
| 20260505181007 | 24 | 259 | 3.2 | 12.9 | 0.00 | 0.00 | 0.00 | 79 | 1009.9 |
| 20260505180507 | 24 | 226 | 3.2 | 11.3 | 0.00 | 0.00 | 0.00 | 79 | 1010.0 |
| 20260505180012 | 24 | 173 | 3.2 | 11.3 | 0.00 | 0.00 | 0.00 | 79 | 1009.9 |
| 20260505175506 | 24 | 114 | 4.8 | 11.3 | 0.00 | 0.00 | 0.00 | 79 | 1010.1 |
| 20260505174007 | 24 | 196 | 4.8 | 17.7 | 0.00 | 0.00 | 0.00 | 79 | 1010.2 |
| 20260505173508 | 24 | 188 | 4.8 | 14.5 | 0.00 | 0.00 | 0.00 | 80 | 1010.2 |
| 20260505172508 | 24 | 269 | 3.2 | 12.9 | 0.00 | 0.00 | 0.00 | 81 | 1010.1 |
| 20260505171509 | 23 | 74 | 1.6 | 6.4 | 0.00 | 0.00 | 0.00 | 82 | 1010.1 |
| 20260505171009 | 23 | 188 | 1.6 | 4.8 | 0.00 | 0.00 | 0.00 | 83 | 1010.2 |
| 20260505170010 | 23 | 150 | 1.6 | 6.4 | 0.00 | 0.00 | 0.00 | 82 | 1010.4 |
| 20260505165507 | 23 | 160 | 3.2 | 4.8 | 0.00 | 0.00 | 0.00 | 82 | 1010.4 |
| 20260505165007 | 23 | 175 | 1.6 | 6.4 | 0.00 | 0.00 | 0.00 | 83 | 1010.3 |
| 20260505164508 | 22 | 241 | 1.6 | 11.3 | 0.00 | 0.00 | 0.00 | 83 | 1010.3 |
| 20260505164009 | 22 | 201 | 1.6 | 11.3 | 0.00 | 0.00 | 0.00 | 83 | 1010.4 |
| 20260505163506 | 22 | 247 | 3.2 | 11.3 | 0.00 | 0.00 | 0.00 | 82 | 1010.5 |
| 20260505163009 | 22 | 196 | 4.8 | 14.5 | 0.00 | 0.00 | 0.00 | 82 | 1010.6 |
| 20260505162506 | 22 | 232 | 3.2 | 14.5 | 0.00 | 0.00 | 0.00 | 82 | 1010.6 |
| 20260505162007 | 22 | 241 | 3.2 | 11.3 | 0.00 | 0.00 | 0.00 | 82 | 1010.4 |
| 20260505161507 | 22 | 225 | 3.2 | 6.4 | 0.00 | 0.00 | 0.00 | 82 | 1010.3 |
| 20260505160507 | 22 | 250 | 4.8 | 14.5 | 0.00 | 0.00 | 0.00 | 82 | 1010.1 |
| 20260505153010 | 22 | 205 | 3.2 | 11.3 | 0.00 | 0.00 | 0.00 | 83 | 1010.1 |
| 20260505152007 | 21 | 150 | 3.2 | 6.4 | 0.00 | 0.00 | 0.00 | 84 | 1010.4 |
| 20260505151507 | 21 | 238 | 3.2 | 11.3 | 0.00 | 0.00 | 0.00 | 84 | 1010.4 |
| 20260505151008 | 21 | 225 | 3.2 | 11.3 | 0.00 | 0.00 | 0.00 | 84 | 1010.5 |
| 20260505150507 | 21 | 251 | 3.2 | 11.3 | 0.00 | 0.00 | 0.00 | 84 | 1010.5 |
| 20260505140506 | 20 | 15 | 1.6 | 8.0 | 0.00 | 0.00 | 0.00 | 85 | 1010.4 |
| 20260505125006 | 19 | 205 | 1.6 | 11.3 | 0.00 | 0.00 | 0.00 | 85 | 1010.3 |
| 20260505124507 | 18 | 174 | 3.2 | 9.7 | 0.00 | 0.00 | 0.00 | 85 | 1010.2 |
| 20260505124006 | 18 | 205 | 3.2 | 9.7 | 0.00 | 0.00 | 0.00 | 85 | 1010.2 |
| 20260505123505 | 18 | 214 | 3.2 | 11.3 | 0.00 | 0.00 | 0.00 | 85 | 1010.2 |
| 20260505122506 | 18 | 206 | 1.6 | 6.4 | 0.00 | 0.00 | 0.00 | 85 | 1010.4 |
| 20260505122007 | 18 | 197 | 1.6 | 8.0 | 0.00 | 0.00 | 0.00 | 85 | 1010.4 |
| 20260505121507 | 18 | 141 | 1.6 | 8.0 | 0.00 | 0.00 | 0.00 | 85 | 1010.3 |
| 20260505121007 | 18 | 258 | 1.6 | 6.4 | 0.00 | 0.00 | 0.00 | 85 | 1010.2 |
| 20260505120507 | 18 | 155 | 1.6 | 8.0 | 0.00 | 0.00 | 0.00 | 85 | 1010.2 |
| 20260505120010 | 18 | 213 | 1.6 | 8.0 | 0.00 | 0.00 | 0.00 | 85 | 1010.1 |
| 20260505115006 | 18 | 170 | 1.6 | 6.4 | 0.00 | 0.00 | 0.00 | 85 | 1009.8 |
| 20260505114508 | 18 | 71 | 1.6 | 6.4 | 0.00 | 0.00 | 0.00 | 85 | 1009.8 |
| 20260505114008 | 18 | 173 | 1.6 | 6.4 | 0.00 | 0.00 | 0.00 | 85 | 1009.8 |
| 20260505113506 | 18 | 198 | 1.6 | 6.4 | 0.00 | 0.00 | 0.00 | 85 | 1009.8 |
| 20260505113009 | 18 | 109 | 1.6 | 9.7 | 0.00 | 0.00 | 0.00 | 85 | 1009.7 |
| 20260505112007 | 18 | 224 | 1.6 | 8.0 | 0.00 | 0.00 | 0.00 | 84 | 1009.7 |
| 20260505111507 | 18 | 236 | 1.6 | 8.0 | 0.00 | 0.00 | 0.00 | 84 | 1009.8 |
| 20260505110509 | 18 | 115 | 1.6 | 12.9 | 0.00 | 0.00 | 0.00 | 84 | 1009.7 |
| 20260505102007 | 18 | 209 | 3.2 | 9.7 | 0.00 | 0.00 | 0.00 | 83 | 1010.2 |
| 20260505101507 | 18 | 170 | 1.6 | 11.3 | 0.00 | 0.00 | 0.00 | 83 | 1010.2 |
| 20260505101006 | 18 | 254 | 1.6 | 11.3 | 0.00 | 0.00 | 0.00 | 83 | 1010.3 |
| 20260505100506 | 18 | 267 | 1.6 | 11.3 | 0.00 | 0.00 | 0.00 | 83 | 1010.4 |
| 20260505100007 | 18 | 192 | 3.2 | 11.3 | 0.00 | 0.00 | 0.00 | 82 | 1010.4 |
| 20260505095505 | 18 | 149 | 1.6 | 6.4 | 0.00 | 0.00 | 0.00 | 82 | 1010.4 |
| 20260505094506 | 18 | 251 | 3.2 | 16.1 | 0.00 | 0.00 | 0.00 | 82 | 1010.4 |
| 20260505094005 | 18 | 184 | 3.2 | 9.7 | 0.00 | 0.00 | 0.00 | 82 | 1010.4 |
| 20260505093505 | 18 | 192 | 3.2 | 9.7 | 0.00 | 0.00 | 0.00 | 82 | 1010.2 |
| 20260505093007 | 18 | 172 | 3.2 | 11.3 | 0.00 | 0.00 | 0.00 | 82 | 1010.3 |
| 20260505092506 | 18 | 182 | 1.6 | 8.0 | 0.00 | 0.00 | 0.00 | 82 | 1010.1 |
| 20260505091506 | 17 | 218 | 3.2 | 12.9 | 0.00 | 0.00 | 0.00 | 82 | 1010.2 |
| 20260505091006 | 17 | 232 | 1.6 | 9.7 | 0.00 | 0.00 | 0.00 | 82 | 1010.1 |
| 20260505090505 | 17 | 144 | 3.2 | 8.0 | 0.00 | 0.00 | 0.00 | 82 | 1010.2 |
| 20260505090009 | 17 | 146 | 3.2 | 9.7 | 0.00 | 0.00 | 0.00 | 82 | 1010.2 |
| 20260505085506 | 17 | 197 | 3.2 | 9.7 | 0.00 | 0.00 | 0.00 | 82 | 1010.3 |
| 20260505085008 | 17 | 140 | 1.6 | 8.0 | 0.00 | 0.00 | 0.00 | 82 | 1010.4 |
| 20260505084008 | 17 | 268 | 1.6 | 4.8 | 0.00 | 0.00 | 0.00 | 82 | 1010.6 |
| 20260505083505 | 17 | 90 | 1.6 | 6.4 | 0.00 | 0.00 | 0.00 | 82 | 1010.7 |
| 20260505083008 | 17 | 84 | 3.2 | 8.0 | 0.00 | 0.00 | 0.00 | 81 | 1010.6 |
| 20260505082007 | 17 | 224 | 1.6 | 8.0 | 0.00 | 0.00 | 0.00 | 81 | 1010.8 |
| 20260505081509 | 17 | 85 | 1.6 | 8.0 | 0.00 | 0.00 | 0.00 | 81 | 1010.6 |
| 20260505080507 | 17 | 308 | 1.6 | 6.4 | 0.00 | 0.00 | 0.00 | 81 | 1010.5 |
| 20260505080008 | 17 | 159 | 1.6 | 6.4 | 0.00 | 0.00 | 0.00 | 81 | 1010.5 |
| 20260505075506 | 17 | 219 | 1.6 | 8.0 | 0.00 | 0.00 | 0.00 | 81 | 1010.5 |